SWA6177 KOAK-KDEN

Flight info

Callsign SWA6177
Flight time 2h 11m
Altitude 37000
Route OAK6 OAK TIPRE Q126 INSLO DTA KAMPR LONGZ4
Aircraft B738/M-SDE2E3FGHIRWXY/LB1

Departure

Time 2026-05-06 19:29
Airport San Francisco Bay Oakland International Airport (KOAK)

Arrival

Time 2026-05-06 21:40
Airport Denver International Airport (KDEN)
Time Latitude Longitude Altitude Speed Heading
2026-05-06 19:11 37.70992 -122.21260 13 ft 0 kts 167°
2026-05-06 19:22 37.71011 -122.21265 16 ft 4 kts 168°
2026-05-06 19:23 37.71032 -122.21275 14 ft 4 kts 144°
2026-05-06 19:23 37.71042 -122.21298 15 ft 4 kts 81°
2026-05-06 19:23 37.71037 -122.21331 18 ft 4 kts 90°
2026-05-06 19:23 37.71039 -122.21357 17 ft 4 kts 114°
2026-05-06 19:24 37.71055 -122.21375 14 ft 4 kts 173°
2026-05-06 19:24 37.71070 -122.21377 15 ft 1 kts 176°
2026-05-06 19:25 37.71053 -122.21378 14 ft 6 kts 185°
2026-05-06 19:26 37.70987 -122.21406 14 ft 14 kts 211°
2026-05-06 19:26 37.70888 -122.21503 13 ft 21 kts 229°
2026-05-06 19:26 37.70813 -122.21660 13 ft 24 kts 220°
2026-05-06 19:26 37.70677 -122.21782 11 ft 21 kts 188°
2026-05-06 19:27 37.70569 -122.21680 10 ft 20 kts 129°
2026-05-06 19:27 37.70480 -122.21547 9 ft 19 kts 130°
2026-05-06 19:27 37.70393 -122.21420 7 ft 19 kts 136°
2026-05-06 19:27 37.70285 -122.21365 9 ft 16 kts 160°
2026-05-06 19:28 37.70186 -122.21409 8 ft 16 kts 229°
2026-05-06 19:28 37.70214 -122.21527 5 ft 15 kts 310°
2026-05-06 19:28 37.70418 -122.21837 7 ft 90 kts 311°
2026-05-06 19:28 37.71016 -122.22726 18 ft 170 kts 310°
2026-05-06 19:29 37.71882 -122.23953 736 ft 195 kts 308°
2026-05-06 19:29 37.72697 -122.25417 1518 ft 211 kts 301°
2026-05-06 19:29 37.73495 -122.27051 1970 ft 230 kts 301°
2026-05-06 19:29 37.74567 -122.28701 2373 ft 255 kts 326°
2026-05-06 19:30 37.76253 -122.29295 3358 ft 255 kts
2026-05-06 19:30 37.77931 -122.28686 4424 ft 253 kts 31°
2026-05-06 19:30 37.79220 -122.27127 5325 ft 263 kts 54°
2026-05-06 19:30 37.80097 -122.25071 6221 ft 269 kts 64°
2026-05-06 19:31 37.80845 -122.22885 7113 ft 273 kts 66°
2026-05-06 19:31 37.81572 -122.20652 7980 ft 276 kts 66°
2026-05-06 19:31 37.83045 -122.16132 9693 ft 284 kts 66°
2026-05-06 19:32 37.83815 -122.13805 10471 ft 292 kts 65°
2026-05-06 19:32 37.84640 -122.11335 10707 ft 319 kts 65°
2026-05-06 19:32 37.85543 -122.08646 10920 ft 343 kts 66°
2026-05-06 19:32 37.86493 -122.05828 11468 ft 353 kts 66°
2026-05-06 19:33 37.87462 -122.02954 12269 ft 355 kts 66°
2026-05-06 19:33 37.88435 -122.00074 13099 ft 356 kts 66°
2026-05-06 19:33 37.89414 -121.97175 13873 ft 359 kts 66°
2026-05-06 19:33 37.90402 -121.94253 14548 ft 362 kts 66°
2026-05-06 19:34 37.91399 -121.91302 15188 ft 367 kts 66°
2026-05-06 19:34 37.92408 -121.88315 15863 ft 370 kts 66°
2026-05-06 19:34 37.93410 -121.85347 16535 ft 372 kts 66°
2026-05-06 19:34 37.94432 -121.82316 17189 ft 376 kts 66°
2026-05-06 19:35 37.95464 -121.79252 17848 ft 379 kts 66°
2026-05-06 19:35 37.96500 -121.76173 18538 ft 381 kts 66°
2026-05-06 19:35 37.97544 -121.73068 19071 ft 385 kts 66°
2026-05-06 19:35 37.98601 -121.69920 19585 ft 390 kts 65°
2026-05-06 19:36 37.99667 -121.66743 20109 ft 394 kts 65°
2026-05-06 19:36 38.00744 -121.63527 20646 ft 398 kts 65°
2026-05-06 19:36 38.01830 -121.60284 21177 ft 401 kts 65°
2026-05-06 19:36 38.02927 -121.57003 21687 ft 405 kts 65°
2026-05-06 19:37 38.04032 -121.53693 22184 ft 409 kts 65°
2026-05-06 19:37 38.05147 -121.50349 22678 ft 413 kts 65°
2026-05-06 19:37 38.06257 -121.47018 23154 ft 417 kts 65°
2026-05-06 19:37 38.07021 -121.44721 23464 ft 420 kts 65°
2026-05-06 19:38 38.08534 -121.40169 24012 ft 424 kts 65°
2026-05-06 19:38 38.09683 -121.36708 24442 ft 427 kts 65°
2026-05-06 19:38 38.10837 -121.33225 24862 ft 429 kts 65°
2026-05-06 19:38 38.11999 -121.29717 25265 ft 431 kts 65°
2026-05-06 19:39 38.13163 -121.26195 25665 ft 434 kts 65°
2026-05-06 19:39 38.14332 -121.22655 26064 ft 437 kts 65°
2026-05-06 19:39 38.15509 -121.19087 26460 ft 439 kts 65°
2026-05-06 19:39 38.16690 -121.15504 26835 ft 441 kts 65°
2026-05-06 19:40 38.17480 -121.13104 27077 ft 443 kts 65°
2026-05-06 19:40 38.18672 -121.09479 27437 ft 445 kts 65°
2026-05-06 19:40 38.20243 -121.04638 27900 ft 449 kts 67°
2026-05-06 19:40 38.20892 -121.02079 28117 ft 453 kts 73°
2026-05-06 19:41 38.21515 -120.98137 28459 ft 456 kts 77°
2026-05-06 19:41 38.22064 -120.94137 28804 ft 459 kts 77°
2026-05-06 19:41 38.22598 -120.90129 29155 ft 461 kts 77°
2026-05-06 19:41 38.23136 -120.86100 29467 ft 463 kts 77°
2026-05-06 19:42 38.23678 -120.82099 29773 ft 466 kts 77°
2026-05-06 19:42 38.24238 -120.78036 30142 ft 466 kts 77°
2026-05-06 19:42 38.24800 -120.73985 30571 ft 464 kts 77°
2026-05-06 19:42 38.25364 -120.69945 31058 ft 460 kts 77°
2026-05-06 19:43 38.25924 -120.65941 31537 ft 457 kts 77°
2026-05-06 19:43 38.26479 -120.61970 31933 ft 456 kts 77°
2026-05-06 19:43 38.27035 -120.57986 32287 ft 455 kts 77°
2026-05-06 19:43 38.27586 -120.54026 32685 ft 454 kts 77°
2026-05-06 19:44 38.28133 -120.50081 33109 ft 451 kts 77°
2026-05-06 19:44 38.28675 -120.46161 33541 ft 449 kts 77°
2026-05-06 19:44 38.29208 -120.42300 33887 ft 448 kts 77°
2026-05-06 19:44 38.29744 -120.38404 34240 ft 446 kts 77°
2026-05-06 19:45 38.30277 -120.34517 34554 ft 446 kts 77°
2026-05-06 19:45 38.30809 -120.30629 34837 ft 445 kts 77°
2026-05-06 19:45 38.31339 -120.26746 35105 ft 445 kts 77°
2026-05-06 19:45 38.31867 -120.22867 35415 ft 444 kts 77°
2026-05-06 19:46 38.32392 -120.19003 35730 ft 442 kts 77°
2026-05-06 19:46 38.32914 -120.15145 36004 ft 442 kts 77°
2026-05-06 19:46 38.33435 -120.11289 36272 ft 442 kts 77°
2026-05-06 19:46 38.33956 -120.07428 36565 ft 441 kts 76°
2026-05-06 19:47 38.34473 -120.03581 36859 ft 440 kts 76°
2026-05-06 19:47 38.34987 -119.99744 37109 ft 439 kts 76°
2026-05-06 19:47 38.36019 -119.92026 37159 ft 443 kts 76°
2026-05-06 19:48 38.37034 -119.84378 37165 ft 439 kts 76°
2026-05-06 19:48 38.38041 -119.76744 37163 ft 435 kts 76°
2026-05-06 19:49 38.39038 -119.69158 37174 ft 432 kts 76°
2026-05-06 19:49 38.40023 -119.61622 37164 ft 431 kts 76°
2026-05-06 19:50 38.41005 -119.54084 37160 ft 431 kts 76°
2026-05-06 19:50 38.41985 -119.46526 37168 ft 433 kts 76°
2026-05-06 19:51 38.42964 -119.38926 37150 ft 435 kts 76°
2026-05-06 19:51 38.43940 -119.31299 37155 ft 436 kts 76°
2026-05-06 19:52 38.44917 -119.23629 37166 ft 439 kts 76°
2026-05-06 19:52 38.45888 -119.15969 37148 ft 440 kts 76°
2026-05-06 19:53 38.46860 -119.08248 37138 ft 440 kts 76°
2026-05-06 19:53 38.47824 -119.00541 37151 ft 439 kts 76°
2026-05-06 19:54 38.48783 -118.92850 37174 ft 439 kts 76°
2026-05-06 19:54 38.49739 -118.85142 37167 ft 439 kts 76°
2026-05-06 19:55 38.50687 -118.77449 37197 ft 438 kts 76°
2026-05-06 19:55 38.51629 -118.69764 37199 ft 438 kts 76°
2026-05-06 19:56 38.52566 -118.62077 37208 ft 438 kts 76°
2026-05-06 19:56 38.53491 -118.54446 37196 ft 437 kts 76°
2026-05-06 19:57 38.54413 -118.46792 37185 ft 436 kts 76°
2026-05-06 19:57 38.55329 -118.39147 37158 ft 435 kts 76°
2026-05-06 19:58 38.56239 -118.31516 37141 ft 434 kts 76°
2026-05-06 19:58 38.57141 -118.23905 37117 ft 433 kts 76°
2026-05-06 19:59 38.58039 -118.16296 37100 ft 432 kts 76°
2026-05-06 19:59 38.58925 -118.08757 37102 ft 432 kts 77°
2026-05-06 20:00 38.59815 -118.01149 37120 ft 433 kts 76°
2026-05-06 20:00 38.60701 -117.93517 37104 ft 434 kts 76°
2026-05-06 20:01 38.61584 -117.85877 37100 ft 435 kts 77°
2026-05-06 20:01 38.62463 -117.78216 37105 ft 435 kts 77°
2026-05-06 20:02 38.63338 -117.70546 37103 ft 436 kts 77°
2026-05-06 20:02 38.64207 -117.62881 37111 ft 435 kts 77°
2026-05-06 20:03 38.65072 -117.55209 37111 ft 435 kts 77°
2026-05-06 20:03 38.65926 -117.47592 37100 ft 436 kts 77°
2026-05-06 20:04 38.66781 -117.39917 37097 ft 435 kts 77°
2026-05-06 20:04 38.67625 -117.32277 37105 ft 433 kts 77°
2026-05-06 20:05 38.68572 -117.24660 37105 ft 432 kts 74°
2026-05-06 20:05 38.69745 -117.17102 37119 ft 433 kts 73°
2026-05-06 20:06 38.70925 -117.09579 37106 ft 433 kts 73°
2026-05-06 20:06 38.72082 -117.01992 37110 ft 434 kts 74°
2026-05-06 20:07 38.73218 -116.94392 37092 ft 435 kts 74°
2026-05-06 20:07 38.74344 -116.86785 37132 ft 435 kts 74°
2026-05-06 20:08 38.75463 -116.79185 37118 ft 434 kts 74°
2026-05-06 20:08 38.76579 -116.71578 37099 ft 433 kts 74°
2026-05-06 20:09 38.77685 -116.64005 37110 ft 432 kts 74°
2026-05-06 20:09 38.78784 -116.56434 37112 ft 431 kts 74°
2026-05-06 20:10 38.79877 -116.48884 37094 ft 431 kts 74°
2026-05-06 20:10 38.80957 -116.41386 37089 ft 430 kts 74°
2026-05-06 20:11 38.82040 -116.33831 37082 ft 430 kts 74°
2026-05-06 20:11 38.83115 -116.26291 37082 ft 430 kts 74°
2026-05-06 20:12 38.84187 -116.18745 37081 ft 430 kts 73°
2026-05-06 20:12 38.85255 -116.11183 37081 ft 431 kts 74°
2026-05-06 20:13 38.86321 -116.03605 37078 ft 432 kts 74°
2026-05-06 20:13 38.87376 -115.96059 37074 ft 432 kts 74°
2026-05-06 20:14 38.88435 -115.88449 37071 ft 433 kts 74°
2026-05-06 20:14 38.89490 -115.80834 37073 ft 433 kts 74°
2026-05-06 20:15 38.90539 -115.73222 37065 ft 433 kts 74°
2026-05-06 20:15 38.91578 -115.65641 37057 ft 433 kts 74°
2026-05-06 20:16 38.92617 -115.58025 37063 ft 433 kts 74°
2026-05-06 20:16 38.93651 -115.50406 37059 ft 433 kts 74°
2026-05-06 20:17 38.94680 -115.42785 37072 ft 433 kts 74°
2026-05-06 20:17 38.95704 -115.35164 37064 ft 433 kts 74°
2026-05-06 20:18 38.96723 -115.27539 37076 ft 433 kts 74°
2026-05-06 20:18 38.97737 -115.19918 37059 ft 433 kts 74°
2026-05-06 20:19 38.98747 -115.12282 37073 ft 432 kts 74°
2026-05-06 20:19 38.99743 -115.04712 37080 ft 432 kts 74°
2026-05-06 20:20 39.00742 -114.97083 37114 ft 433 kts 74°
2026-05-06 20:20 39.01736 -114.89448 37120 ft 433 kts 74°
2026-05-06 20:21 39.02725 -114.81819 37127 ft 432 kts 74°
2026-05-06 20:21 39.03709 -114.74178 37124 ft 433 kts 74°
2026-05-06 20:22 39.04688 -114.66544 37119 ft 433 kts 74°
2026-05-06 20:22 39.05661 -114.58904 37112 ft 432 kts 74°
2026-05-06 20:23 39.06629 -114.51271 37098 ft 432 kts 74°
2026-05-06 20:23 39.07592 -114.43634 37091 ft 432 kts 74°
2026-05-06 20:24 39.08545 -114.36038 37105 ft 433 kts 74°
2026-05-06 20:24 39.09501 -114.28377 37086 ft 434 kts 75°
2026-05-06 20:25 39.10454 -114.20695 37091 ft 434 kts 75°
2026-05-06 20:25 39.11401 -114.13012 37092 ft 434 kts 75°
2026-05-06 20:26 39.12343 -114.05333 37112 ft 434 kts 74°
2026-05-06 20:26 39.13277 -113.97683 37095 ft 435 kts 75°
2026-05-06 20:27 39.14210 -113.89990 37089 ft 435 kts 75°
2026-05-06 20:27 39.15139 -113.82284 37090 ft 435 kts 75°
2026-05-06 20:28 39.16065 -113.74564 37112 ft 435 kts 74°
2026-05-06 20:28 39.16984 -113.66855 37106 ft 436 kts 75°
2026-05-06 20:29 39.17899 -113.59130 37095 ft 436 kts 75°
2026-05-06 20:29 39.18805 -113.51445 37093 ft 436 kts 75°
2026-05-06 20:30 39.20158 -113.39872 37118 ft 435 kts 75°
2026-05-06 20:31 39.21056 -113.32149 37100 ft 435 kts 75°
2026-05-06 20:31 39.21798 -113.25722 37086 ft 436 kts 75°
2026-05-06 20:32 39.22834 -113.16692 37089 ft 435 kts 75°
2026-05-06 20:32 39.23567 -113.10262 37115 ft 434 kts 75°
2026-05-06 20:33 39.24443 -113.02551 37080 ft 435 kts 75°
2026-05-06 20:33 39.25308 -112.94878 37089 ft 435 kts 75°
2026-05-06 20:34 39.26174 -112.87153 37077 ft 435 kts 75°
2026-05-06 20:34 39.27036 -112.79420 37086 ft 435 kts 75°
2026-05-06 20:35 39.27892 -112.71692 37073 ft 435 kts 75°
2026-05-06 20:35 39.28738 -112.64003 37074 ft 435 kts 75°
2026-05-06 20:36 39.29590 -112.56215 37076 ft 435 kts 75°
2026-05-06 20:36 39.30988 -112.48786 37076 ft 423 kts 62°
2026-05-06 20:37 39.33663 -112.42118 37077 ft 418 kts 55°
2026-05-06 20:37 39.36466 -112.35536 37080 ft 419 kts 55°
2026-05-06 20:38 39.39262 -112.28906 37071 ft 420 kts 56°
2026-05-06 20:38 39.42039 -112.22255 37072 ft 421 kts 56°
2026-05-06 20:39 39.44818 -112.15564 37062 ft 422 kts 56°
2026-05-06 20:39 39.47588 -112.08875 37073 ft 421 kts 56°
2026-05-06 20:40 39.50346 -112.02200 37065 ft 420 kts 56°
2026-05-06 20:40 39.53081 -111.95570 37070 ft 420 kts 56°
2026-05-06 20:41 39.55826 -111.88902 37067 ft 419 kts 56°
2026-05-06 20:41 39.58562 -111.82241 37071 ft 418 kts 56°
2026-05-06 20:42 39.61299 -111.75567 37111 ft 419 kts 56°
2026-05-06 20:42 39.64016 -111.68926 37091 ft 420 kts 56°
2026-05-06 20:43 39.66752 -111.62218 37073 ft 420 kts 56°
2026-05-06 20:43 39.69482 -111.55509 37079 ft 419 kts 56°
2026-05-06 20:44 39.72208 -111.48800 37099 ft 419 kts 56°
2026-05-06 20:44 39.74911 -111.42130 37098 ft 419 kts 56°
2026-05-06 20:45 39.77628 -111.35415 37103 ft 420 kts 56°
2026-05-06 20:45 39.80348 -111.28677 37097 ft 420 kts 56°
2026-05-06 20:46 39.83059 -111.21942 37094 ft 421 kts 56°
2026-05-06 20:46 39.85771 -111.15192 37098 ft 420 kts 56°
2026-05-06 20:47 39.88456 -111.08493 37101 ft 420 kts 56°
2026-05-06 20:47 39.91161 -111.01731 37091 ft 420 kts 56°
2026-05-06 20:48 39.93862 -110.94964 37086 ft 421 kts 56°
2026-05-06 20:48 39.96560 -110.88188 37092 ft 421 kts 56°
2026-05-06 20:49 39.99260 -110.81392 37079 ft 422 kts 56°
2026-05-06 20:49 40.01940 -110.74634 37080 ft 423 kts 56°
2026-05-06 20:50 40.04638 -110.67816 37073 ft 422 kts 56°
2026-05-06 20:50 40.07324 -110.61004 37060 ft 421 kts 56°
2026-05-06 20:51 40.09999 -110.54207 37096 ft 421 kts 56°
2026-05-06 20:51 40.12676 -110.47393 37086 ft 421 kts 56°
2026-05-06 20:52 40.15333 -110.40617 37103 ft 421 kts 56°
2026-05-06 20:52 40.17997 -110.33803 37107 ft 421 kts 56°
2026-05-06 20:53 40.20657 -110.26984 37098 ft 421 kts 56°
2026-05-06 20:53 40.23319 -110.20146 37111 ft 421 kts 56°
2026-05-06 20:54 40.25975 -110.13308 37140 ft 421 kts 56°
2026-05-06 20:54 40.28628 -110.06461 37125 ft 422 kts 57°
2026-05-06 20:55 40.31285 -109.99589 37118 ft 423 kts 57°
2026-05-06 20:55 40.33920 -109.92755 37113 ft 423 kts 57°
2026-05-06 20:56 40.36572 -109.85863 37111 ft 423 kts 57°
2026-05-06 20:56 40.39219 -109.78969 37154 ft 423 kts 57°
2026-05-06 20:57 40.41867 -109.72054 37129 ft 424 kts 57°
2026-05-06 20:57 40.44513 -109.65129 37186 ft 424 kts 57°
2026-05-06 20:58 40.47156 -109.58195 37200 ft 424 kts 57°
2026-05-06 20:58 40.49795 -109.51256 37193 ft 425 kts 57°
2026-05-06 20:59 40.52415 -109.44350 37236 ft 424 kts 57°
2026-05-06 20:59 40.55050 -109.37386 37187 ft 425 kts 56°
2026-05-06 21:00 40.57672 -109.30442 37163 ft 424 kts 56°
2026-05-06 21:00 40.60279 -109.23519 37156 ft 420 kts 57°
2026-05-06 21:01 40.62868 -109.16632 37151 ft 419 kts 56°
2026-05-06 21:01 40.65449 -109.09751 37160 ft 418 kts 56°
2026-05-06 21:02 40.67186 -109.02337 37151 ft 442 kts 81°
2026-05-06 21:02 40.66769 -108.94145 37135 ft 450 kts 87°
2026-05-06 21:03 40.66149 -108.85983 37158 ft 453 kts 87°
2026-05-06 21:03 40.65561 -108.77716 37176 ft 453 kts 87°
2026-05-06 21:04 40.65005 -108.69442 37134 ft 454 kts 87°
2026-05-06 21:04 40.64455 -108.61173 37140 ft 453 kts 87°
2026-05-06 21:05 40.63900 -108.52908 37139 ft 453 kts 87°
2026-05-06 21:05 40.63339 -108.44655 37136 ft 452 kts 87°
2026-05-06 21:06 40.62772 -108.36404 37140 ft 452 kts 87°
2026-05-06 21:06 40.62199 -108.28152 37140 ft 452 kts 88°
2026-05-06 21:07 40.61620 -108.19899 37135 ft 453 kts 88°
2026-05-06 21:07 40.61037 -108.11685 37148 ft 453 kts 88°
2026-05-06 21:08 40.60444 -108.03422 37138 ft 454 kts 88°
2026-05-06 21:08 40.59846 -107.95151 37141 ft 454 kts 88°
2026-05-06 21:09 40.59241 -107.86874 37131 ft 455 kts 88°
2026-05-06 21:09 40.58630 -107.78580 37150 ft 455 kts 88°
2026-05-06 21:10 40.58018 -107.70355 37173 ft 456 kts 88°
2026-05-06 21:10 40.57396 -107.62054 37165 ft 456 kts 88°
2026-05-06 21:11 40.56770 -107.53746 37192 ft 456 kts 88°
2026-05-06 21:11 40.56139 -107.45428 37176 ft 457 kts 89°
2026-05-06 21:12 40.55502 -107.37112 37183 ft 458 kts 89°
2026-05-06 21:12 40.54858 -107.28777 37170 ft 458 kts 89°
2026-05-06 21:13 40.54206 -107.20441 37158 ft 458 kts 89°
2026-05-06 21:13 40.53548 -107.12105 37165 ft 458 kts 89°
2026-05-06 21:14 40.52891 -107.03835 37193 ft 458 kts 90°
2026-05-06 21:14 40.52220 -106.95481 37146 ft 459 kts 89°
2026-05-06 21:15 40.51545 -106.87108 36576 ft 464 kts 89°
2026-05-06 21:15 40.51199 -106.82895 35997 ft 460 kts 89°
2026-05-06 21:15 40.50855 -106.78718 35383 ft 459 kts 88°
2026-05-06 21:15 40.50516 -106.74601 34754 ft 458 kts 87°
2026-05-06 21:16 40.50167 -106.70395 34084 ft 457 kts 86°
2026-05-06 21:16 40.49827 -106.66298 33355 ft 455 kts 86°
2026-05-06 21:16 40.49484 -106.62164 32608 ft 454 kts 86°
2026-05-06 21:16 40.49140 -106.58049 32103 ft 449 kts 86°
2026-05-06 21:17 40.48796 -106.54017 31842 ft 438 kts 86°
2026-05-06 21:17 40.48454 -106.50078 31419 ft 432 kts 86°
2026-05-06 21:17 40.48107 -106.46186 31002 ft 426 kts 86°
2026-05-06 21:17 40.47761 -106.42339 30537 ft 423 kts 86°
2026-05-06 21:18 40.47416 -106.38515 30053 ft 419 kts 86°
2026-05-06 21:18 40.47075 -106.34731 29565 ft 415 kts 86°
2026-05-06 21:18 40.46736 -106.30984 29054 ft 411 kts 86°
2026-05-06 21:18 40.46401 -106.27278 28571 ft 407 kts 86°
2026-05-06 21:19 40.46069 -106.23614 28091 ft 403 kts 86°
2026-05-06 21:19 40.45738 -106.19977 27622 ft 399 kts 87°
2026-05-06 21:19 40.45408 -106.16385 27166 ft 395 kts 87°
2026-05-06 21:19 40.45087 -106.12827 26793 ft 389 kts 87°
2026-05-06 21:20 40.44781 -106.09318 26452 ft 389 kts 87°
2026-05-06 21:20 40.44581 -106.06955 26242 ft 396 kts 87°
2026-05-06 21:20 40.44166 -106.02107 25771 ft 401 kts 88°
2026-05-06 21:20 40.43850 -105.98531 25439 ft 399 kts 89°
2026-05-06 21:21 40.43534 -105.94911 25054 ft 399 kts 89°
2026-05-06 21:21 40.43219 -105.91301 24697 ft 398 kts 89°
2026-05-06 21:21 40.42771 -105.87703 24391 ft 401 kts 94°
2026-05-06 21:21 40.42190 -105.84099 23982 ft 403 kts 95°
2026-05-06 21:22 40.41590 -105.80520 23618 ft 401 kts 95°
2026-05-06 21:22 40.40995 -105.76952 23215 ft 398 kts 95°
2026-05-06 21:22 40.40614 -105.74614 22970 ft 397 kts 96°
2026-05-06 21:22 40.39856 -105.69895 22504 ft 392 kts 96°
2026-05-06 21:23 40.39488 -105.67580 22263 ft 391 kts 96°
2026-05-06 21:23 40.38935 -105.64099 21954 ft 387 kts 96°
2026-05-06 21:23 40.38209 -105.59563 21456 ft 379 kts 97°
2026-05-06 21:23 40.37671 -105.56198 21124 ft 375 kts 97°
2026-05-06 21:24 40.37137 -105.52863 20785 ft 372 kts 97°
2026-05-06 21:24 40.36778 -105.50619 20573 ft 371 kts 97°
2026-05-06 21:24 40.36249 -105.47317 20248 ft 369 kts 98°
2026-05-06 21:24 40.35728 -105.44075 19916 ft 368 kts 98°
2026-05-06 21:25 40.35200 -105.40800 19609 ft 364 kts 98°
2026-05-06 21:25 40.34643 -105.37584 19273 ft 362 kts 104°
2026-05-06 21:25 40.33472 -105.34675 18987 ft 361 kts 125°
2026-05-06 21:25 40.31944 -105.32097 18732 ft 356 kts 127°
2026-05-06 21:26 40.30418 -105.29577 18474 ft 351 kts 127°
2026-05-06 21:26 40.28911 -105.27084 18211 ft 347 kts 127°
2026-05-06 21:26 40.27421 -105.24607 17813 ft 347 kts 127°
2026-05-06 21:26 40.25938 -105.22122 17499 ft 344 kts 127°
2026-05-06 21:27 40.24478 -105.19665 17221 ft 340 kts 127°
2026-05-06 21:27 40.23040 -105.17240 16954 ft 335 kts 127°
2026-05-06 21:27 40.21617 -105.14842 16716 ft 332 kts 127°
2026-05-06 21:27 40.20212 -105.12477 16484 ft 332 kts 127°
2026-05-06 21:28 40.18794 -105.10094 16242 ft 332 kts 127°
2026-05-06 21:28 40.17373 -105.07706 16003 ft 333 kts 127°
2026-05-06 21:28 40.15950 -105.05312 15763 ft 335 kts 127°
2026-05-06 21:28 40.14516 -105.02906 15505 ft 335 kts 129°
2026-05-06 21:29 40.12951 -105.00655 15261 ft 334 kts 135°
2026-05-06 21:29 40.11288 -104.98547 15000 ft 333 kts 137°
2026-05-06 21:29 40.09611 -104.96463 14752 ft 332 kts 137°
2026-05-06 21:29 40.07942 -104.94366 14510 ft 332 kts 136°
2026-05-06 21:30 40.06313 -104.92287 14287 ft 332 kts 136°
2026-05-06 21:30 40.04669 -104.90177 14036 ft 330 kts 136°
2026-05-06 21:30 40.03047 -104.88092 13762 ft 325 kts 136°
2026-05-06 21:30 40.01450 -104.86039 13504 ft 320 kts 136°
2026-05-06 21:31 39.99874 -104.84014 13268 ft 315 kts 136°
2026-05-06 21:31 39.98304 -104.82030 13033 ft 312 kts 141°
2026-05-06 21:31 39.96432 -104.80700 12824 ft 305 kts 167°
2026-05-06 21:31 39.94350 -104.80397 12591 ft 300 kts 182°
2026-05-06 21:32 39.92257 -104.80443 12376 ft 301 kts 183°
2026-05-06 21:32 39.88086 -104.80600 11926 ft 296 kts 183°
2026-05-06 21:32 39.86051 -104.80671 11747 ft 289 kts 183°
2026-05-06 21:33 39.84090 -104.80734 11560 ft 280 kts 183°
2026-05-06 21:33 39.82175 -104.80792 11335 ft 273 kts 183°
2026-05-06 21:33 39.80294 -104.80849 11115 ft 269 kts 182°
2026-05-06 21:33 39.78459 -104.80904 10888 ft 259 kts 182°
2026-05-06 21:34 39.76689 -104.80951 10600 ft 249 kts 182°
2026-05-06 21:34 39.74982 -104.80996 10319 ft 243 kts 182°
2026-05-06 21:34 39.73314 -104.81016 10028 ft 235 kts 179°
2026-05-06 21:34 39.71747 -104.80587 9720 ft 230 kts 155°
2026-05-06 21:35 39.70482 -104.79368 9489 ft 226 kts 134°
2026-05-06 21:35 39.69596 -104.77723 9239 ft 220 kts 115°
2026-05-06 21:35 39.69171 -104.75842 8982 ft 217 kts 97°
2026-05-06 21:35 39.69206 -104.73895 8724 ft 217 kts 78°
2026-05-06 21:36 39.69719 -104.72075 8509 ft 215 kts 60°
2026-05-06 21:36 39.70625 -104.70573 8259 ft 215 kts 42°
2026-05-06 21:36 39.71837 -104.69482 8007 ft 209 kts 25°
2026-05-06 21:36 39.73191 -104.68930 7759 ft 201 kts
2026-05-06 21:37 39.74571 -104.68814 7587 ft 197 kts 360°
2026-05-06 21:37 39.75957 -104.68807 7345 ft 200 kts 359°
2026-05-06 21:37 39.77351 -104.68800 7106 ft 200 kts 359°
2026-05-06 21:37 39.78741 -104.68794 6856 ft 200 kts 359°
2026-05-06 21:38 39.80113 -104.68784 6584 ft 193 kts 359°
2026-05-06 21:38 39.81404 -104.68772 6290 ft 177 kts 360°
2026-05-06 21:38 39.82575 -104.68760 6083 ft 161 kts
2026-05-06 21:38 39.83682 -104.68748 5884 ft 157 kts
2026-05-06 21:39 39.84772 -104.68737 5663 ft 157 kts
2026-05-06 21:39 39.85847 -104.68726 5486 ft 155 kts
2026-05-06 21:39 39.86909 -104.68715 5365 ft 145 kts
2026-05-06 21:39 39.87774 -104.68700 5367 ft 103 kts
2026-05-06 21:40 39.88341 -104.68688 5363 ft 64 kts
2026-05-06 21:40 39.88598 -104.68572 5365 ft 18 kts 52°
2026-05-06 21:40 39.88538 -104.68480 5364 ft 16 kts 178°
2026-05-06 21:40 39.88427 -104.68482 5363 ft 16 kts 180°
2026-05-06 21:41 39.88321 -104.68483 5365 ft 15 kts 180°
2026-05-06 21:41 39.88218 -104.68483 5364 ft 15 kts 181°
2026-05-06 21:41 39.88114 -104.68485 5365 ft 16 kts 180°
2026-05-06 21:41 39.88001 -104.68484 5364 ft 17 kts 180°
2026-05-06 21:42 39.87876 -104.68487 5363 ft 19 kts 180°
2026-05-06 21:42 39.87738 -104.68488 5362 ft 21 kts 180°
2026-05-06 21:42 39.87574 -104.68490 5364 ft 26 kts 180°
2026-05-06 21:42 39.87383 -104.68493 5365 ft 29 kts 181°
2026-05-06 21:43 39.87173 -104.68497 5363 ft 32 kts 181°
2026-05-06 21:43 39.86941 -104.68499 5363 ft 35 kts 180°
2026-05-06 21:43 39.86693 -104.68501 5363 ft 37 kts 181°
2026-05-06 21:43 39.86435 -104.68502 5362 ft 39 kts 180°
2026-05-06 21:44 39.86185 -104.68506 5365 ft 23 kts 176°
2026-05-06 21:44 39.86141 -104.68375 5365 ft 16 kts 89°
2026-05-06 21:44 39.86138 -104.68229 5365 ft 16 kts 97°
2026-05-06 21:44 39.86139 -104.68090 5362 ft 16 kts 88°
2026-05-06 21:45 39.86138 -104.67939 5365 ft 18 kts 90°
2026-05-06 21:45 39.86136 -104.67763 5365 ft 21 kts 90°
2026-05-06 21:45 39.86136 -104.67555 5365 ft 25 kts 90°
2026-05-06 21:45 39.86137 -104.67325 5361 ft 21 kts 82°
2026-05-06 21:46 39.86189 -104.67193 5365 ft 14 kts 89°
2026-05-06 21:46 39.86223 -104.67154 5365 ft 6 kts
2026-05-06 21:46 39.86257 -104.67153 5364 ft 2 kts
2026-05-06 21:46 39.86260 -104.67153 5364 ft 0 kts